Weather History for Port Lavaca, TX

Change the Weather History Date:

Monday, March 18, 2013

  Actual Average (KVCT) Record (KVCT)
Temperature  
Mean Temperature 74 °F 64 °F  
Max Temperature 83 °F 75 °F 90 °F (1992)
Min Temperature 63 °F 53 °F 34 °F (1934)
Degree Days  
Heating Degree Days 0 4  
Month to date heating degree days 90  
Since 1 July heating degree days 1183  
Cooling Degree Days 8 2  
Month to date cooling degree days 35  
Year to date cooling degree days 73  
Growing Degree Days 24 (Base 50)    
Moisture  
Dew Point 65 °F    
Average Humidity 77    
Maximum Humidity 91    
Minimum Humidity 54    
Precipitation  
Precipitation 0.00 in 0.09 in 1.42 in (1997)
Month to date precipitation 1.51  
Year to date precipitation 6.11  
Snow  
Snow 0.00 in - - ()
Month to date snowfall  
Since 1 July snowfall  
Snow Depth -    
Sea Level Pressure  
Sea Level Pressure 29.78 in    
Wind  
Wind Speed 8 mph (SSE)    
Max Wind Speed 14 mph    
Max Gust Speed 23 mph    
Visibility 8 miles    
Events      
T = Trace of Precipitation, MM = Missing Value Source: NWS Daily Summary

Daily Weather History Graph

Daily Weather History Graph

Search for Another Location

Airport:

Trip Planner

Search our weather history database for the weather conditions in past years. The results will help you decide how hot, cold, wet, or windy it might be!

Date:

Astronomy

Mar. 18, 2013 Rise Set
Actual Time 7:32 AM CDT 7:37 PM CDT
Civil Twilight 7:09 AM CDT 8:00 PM CDT
Nautical Twilight 6:41 AM CDT 8:28 PM CDT
Astronomical Twilight 6:14 AM CDT 8:55 PM CDT
Moon 12:00 PM CDT (3/18) 1:10 AM CDT (3/18)
Length of Visible Light 12h 51m
Length of Day
12h 04m
Waxing Crescent, 41% of the Moon is Illuminated
Mar 18
Waxing Crescent
Mar 19
First Quarter
Mar 27
Full
Apr 2
Last Quarter
Apr 10
New

Hourly Weather History & Observations

Time (CDT) Temp. Heat Index Dew Point Humidity Pressure Visibility Wind Dir Wind Speed Gust Speed Precip Events Conditions
12:15 AM 69.8 °F - 66.7 °F 90% 29.75 in 7.0 mi SSE 11.5 mph - N/A   Overcast
12:35 AM 69.4 °F - 66.6 °F 91% 29.75 in 7.0 mi SSE 6.9 mph - N/A   Overcast
12:55 AM 69.4 °F - 66.6 °F 91% 29.75 in 7.0 mi SSE 8.1 mph - N/A   Overcast
1:15 AM 69.4 °F - 66.6 °F 91% 29.76 in 7.0 mi South 4.6 mph - N/A   Overcast
1:35 AM 69.4 °F - 66.4 °F 90% 29.76 in 7.0 mi South 9.2 mph - N/A   Overcast
1:55 AM 69.8 °F - 66.4 °F 89% 29.76 in 7.0 mi South 6.9 mph - N/A   Overcast
2:15 AM 69.4 °F - 66.2 °F 89% 29.76 in 7.0 mi South 5.8 mph - N/A   Overcast
2:35 AM 69.1 °F - 66.2 °F 91% 29.75 in 7.0 mi South 8.1 mph - N/A   Overcast
2:55 AM 69.1 °F - 66.2 °F 91% 29.75 in 7.0 mi SSE 5.8 mph - N/A   Overcast
3:15 AM 69.1 °F - 66.2 °F 91% 29.74 in 7.0 mi South 8.1 mph - N/A   Overcast
3:35 AM 69.3 °F - 66.2 °F 90% 29.74 in 7.0 mi SSE 6.9 mph - N/A   Overcast
3:55 AM 69.3 °F - 66.2 °F 90% 29.73 in 7.0 mi SSE 9.2 mph - N/A   Overcast
4:15 AM 69.4 °F - 66.2 °F 89% 29.73 in 7.0 mi South 13.8 mph 17.3 mph N/A   Overcast
4:35 AM 69.8 °F - 66.0 °F 88% 29.73 in 7.0 mi South 10.4 mph - N/A   Overcast
4:55 AM 69.4 °F - 65.8 °F 88% 29.73 in 7.0 mi South 8.1 mph - N/A   Overcast
5:15 AM 69.3 °F - 65.7 °F 88% 29.74 in 7.0 mi South 6.9 mph - N/A   Overcast
5:35 AM 69.4 °F - 65.3 °F 87% 29.75 in 7.0 mi South 5.8 mph - N/A   Overcast
5:55 AM 69.3 °F - 65.3 °F 87% 29.75 in 7.0 mi South 9.2 mph - N/A   Overcast
6:15 AM 69.1 °F - 65.3 °F 88% 29.76 in 7.0 mi South 9.2 mph - N/A   Overcast
6:35 AM 69.1 °F - 64.6 °F 86% 29.77 in 7.0 mi South 8.1 mph - N/A   Overcast
6:55 AM 69.1 °F - 64.6 °F 86% 29.77 in 7.0 mi South 8.1 mph - N/A   Overcast
7:15 AM 68.9 °F - 64.6 °F 86% 29.79 in 7.0 mi South 4.6 mph - N/A   Overcast
7:35 AM 68.7 °F - 64.4 °F 86% 29.80 in 7.0 mi South 5.8 mph - N/A   Overcast
7:55 AM 68.5 °F - 64.0 °F 85% 29.81 in 7.0 mi South 5.8 mph - N/A   Overcast
8:15 AM 68.9 °F - 63.0 °F 81% 29.81 in 7.0 mi SSW 6.9 mph - N/A   Overcast
8:35 AM 69.1 °F - 63.1 °F 81% 29.82 in 7.0 mi SW 5.8 mph - N/A   Overcast
8:55 AM 69.4 °F - 63.3 °F 81% 29.82 in 7.0 mi SSW 4.6 mph - N/A   Overcast
9:15 AM 70.2 °F - 63.7 °F 80% 29.82 in 7.0 mi South 5.8 mph - N/A   Overcast
9:35 AM 70.9 °F - 63.7 °F 78% 29.82 in 7.0 mi South 6.9 mph - N/A   Overcast
9:55 AM 71.6 °F - 64.0 °F 77% 29.82 in 7.0 mi SSE 5.8 mph - N/A   Scattered Clouds
10:15 AM 73.4 °F - 64.0 °F 72% 29.82 in 10.0 mi South 8.1 mph - N/A   Clear
10:35 AM 74.1 °F - 64.0 °F 71% 29.82 in 10.0 mi SSE 6.9 mph - N/A   Clear
10:55 AM 75.0 °F - 64.0 °F 69% 29.81 in 10.0 mi SSE 6.9 mph - N/A   Clear
11:15 AM 76.3 °F - 64.6 °F 67% 29.81 in 10.0 mi SSE 5.8 mph - N/A   Clear
11:35 AM 77.2 °F - 64.0 °F 64% 29.81 in 10.0 mi SE 4.6 mph - N/A   Clear
11:55 AM 78.1 °F - 63.9 °F 61% 29.80 in 10.0 mi SE 5.8 mph - N/A   Clear
12:15 PM 78.3 °F - 65.7 °F 65% 29.80 in 10.0 mi SE 9.2 mph - N/A   Clear
12:35 PM 78.8 °F - 65.5 °F 64% 29.80 in 10.0 mi ESE 11.5 mph - N/A   Clear
12:55 PM 77.7 °F - 65.5 °F 66% 29.81 in 10.0 mi East 11.5 mph - N/A   Clear
1:15 PM 78.4 °F - 66.2 °F 66% 29.80 in 10.0 mi East 11.5 mph - N/A   Clear
1:35 PM 80.8 °F 82.5 °F 64.8 °F 58% 29.80 in 10.0 mi SSW 11.5 mph 20.7 mph N/A   Clear
1:55 PM 80.6 °F 82.3 °F 64.6 °F 58% 29.80 in 10.0 mi South 11.5 mph 16.1 mph N/A   Clear
2:15 PM 80.4 °F 82.1 °F 64.6 °F 58% 29.79 in 10.0 mi SSW 12.7 mph 16.1 mph N/A   Clear
2:35 PM 80.6 °F 82.2 °F 64.0 °F 57% 29.78 in 10.0 mi SSW 11.5 mph 18.4 mph N/A   Clear
2:55 PM 81.7 °F 83.5 °F 65.3 °F 57% 29.77 in 10.0 mi South 12.7 mph 19.6 mph N/A   Clear
3:15 PM 81.9 °F 83.7 °F 65.5 °F 57% 29.77 in 10.0 mi South 8.1 mph - N/A   Clear
3:35 PM 82.6 °F 84.5 °F 65.3 °F 56% 29.76 in 10.0 mi SSW 9.2 mph - N/A   Clear
3:55 PM 82.6 °F 84.5 °F 65.3 °F 56% 29.75 in 10.0 mi South 9.2 mph - N/A   Clear
4:15 PM 82.8 °F 84.5 °F 65.3 °F 55% 29.74 in 10.0 mi South 9.2 mph - N/A   Clear
4:35 PM 82.9 °F 84.8 °F 65.3 °F 55% 29.73 in 10.0 mi South 8.1 mph - N/A   Clear
4:55 PM 83.3 °F 85.3 °F 65.5 °F 55% 29.74 in 10.0 mi South 6.9 mph - N/A   Clear
5:15 PM 83.1 °F 84.8 °F 64.9 °F 54% 29.73 in 10.0 mi South 6.9 mph - N/A   Clear
5:35 PM 83.3 °F 85.1 °F 65.3 °F 54% 29.73 in 10.0 mi SSE 8.1 mph - N/A   Clear
5:55 PM 82.6 °F 84.5 °F 65.7 °F 56% 29.73 in 10.0 mi South 6.9 mph - N/A   Clear
6:15 PM 81.9 °F 83.9 °F 65.7 °F 58% 29.74 in 10.0 mi SSE 9.2 mph - N/A   Clear
6:35 PM 79.9 °F - 65.8 °F 62% 29.75 in 10.0 mi SSE 11.5 mph - N/A   Clear
6:55 PM 76.6 °F - 65.5 °F 68% 29.75 in 10.0 mi SSE 10.4 mph - N/A   Clear
7:15 PM 74.7 °F - 65.1 °F 72% 29.76 in 10.0 mi SSE 10.4 mph - N/A   Clear
7:35 PM 72.5 °F - 64.4 °F 76% 29.77 in 10.0 mi SSE 9.2 mph - N/A   Clear
7:55 PM 70.7 °F - 64.4 °F 80% 29.77 in 10.0 mi South 9.2 mph - N/A   Clear
8:15 PM 69.4 °F - 64.0 °F 83% 29.78 in 10.0 mi SE 6.9 mph - N/A   Clear
8:35 PM 68.9 °F - 64.4 °F 86% 29.79 in 10.0 mi SE 8.1 mph - N/A   Clear
8:55 PM 68.0 °F - 64.4 °F 88% 29.80 in 7.0 mi SSE 4.6 mph - N/A   Clear
9:15 PM 68.0 °F - 64.4 °F 88% 29.84 in 7.0 mi NNW 11.5 mph 23.0 mph N/A   Clear
9:35 PM 68.9 °F - 64.4 °F 86% 29.85 in 10.0 mi NNE 3.5 mph - N/A   Scattered Clouds
9:55 PM 68.0 °F - 63.7 °F 86% 29.85 in 10.0 mi Calm Calm - N/A   Clear
10:15 PM 66.9 °F - 62.8 °F 87% 29.87 in 7.0 mi Calm Calm - N/A   Clear
10:35 PM 67.8 °F - 63.5 °F 86% 29.87 in 10.0 mi Calm Calm - N/A   Clear
10:55 PM 67.1 °F - 63.1 °F 87% 29.88 in 7.0 mi Calm Calm - N/A   Clear
11:15 PM 67.1 °F - 63.1 °F 87% 29.89 in 7.0 mi Calm Calm - N/A   Clear
11:35 PM 64.4 °F - 60.8 °F 88% 29.90 in 7.0 mi Calm Calm - N/A   Clear
11:55 PM 63.5 °F - 60.8 °F 91% 29.89 in 7.0 mi NNE 4.6 mph - N/A   Clear